Time,TemperatureF,DewpointF,PressureIn,WindDirection,WindDirectionDegrees,WindSpeedMPH,WindSpeedGustMPH,Humidity,HourlyPrecipIn,Conditions,Clouds,dailyrainin,SoftwareType,DateUTC
2013-02-27 00:14:00,41.6,9.0,30.27,NNW,346,0.0,2.0,26,0.00,,,0.00,weatherlink.com 1.10,2013-02-27 08:14:00,
2013-02-27 00:30:00,41.2,10.0,30.29,NNW,346,2.0,4.0,27,0.00,,,0.00,weatherlink.com 1.10,2013-02-27 08:30:00,
2013-02-27 00:46:00,40.8,9.0,30.29,NNW,346,0.0,2.0,27,0.00,,,0.00,weatherlink.com 1.10,2013-02-27 08:46:00,
2013-02-27 01:01:00,39.3,9.0,30.29,NNW,346,0.0,4.0,28,0.00,,,0.00,weatherlink.com 1.10,2013-02-27 09:01:00,
2013-02-27 01:17:00,37.9,9.0,30.30,NNW,346,2.0,2.0,30,0.00,,,0.00,weatherlink.com 1.10,2013-02-27 09:17:00,
2013-02-27 01:33:00,38.0,9.0,30.29,NNW,346,0.0,2.0,30,0.00,,,0.00,weatherlink.com 1.10,2013-02-27 09:33:00,
2013-02-27 01:49:00,39.5,10.0,30.30,NNW,347,1.0,4.0,29,0.00,,,0.00,weatherlink.com 1.10,2013-02-27 09:49:00,
2013-02-27 02:05:00,40.1,10.0,30.29,NNW,346,1.0,4.0,28,0.00,,,0.00,weatherlink.com 1.10,2013-02-27 10:05:00,
2013-02-27 02:21:00,40.1,10.0,30.29,NNW,347,0.0,4.0,29,0.00,,,0.00,weatherlink.com 1.10,2013-02-27 10:21:00,
2013-02-27 02:36:00,39.8,10.0,30.29,NNW,347,0.0,4.0,29,0.00,,,0.00,weatherlink.com 1.10,2013-02-27 10:36:00,
2013-02-27 02:52:00,39.8,10.0,30.29,NNW,347,0.0,5.0,29,0.00,,,0.00,weatherlink.com 1.10,2013-02-27 10:52:00,
2013-02-27 03:08:00,39.2,10.0,30.29,NNW,347,0.0,4.0,30,0.00,,,0.00,weatherlink.com 1.10,2013-02-27 11:08:00,
2013-02-27 03:24:00,39.1,10.0,30.29,NNW,347,0.0,2.0,30,0.00,,,0.00,weatherlink.com 1.10,2013-02-27 11:24:00,
2013-02-27 03:39:00,38.6,10.0,30.29,NNW,347,1.0,2.0,30,0.00,,,0.00,weatherlink.com 1.10,2013-02-27 11:39:00,
2013-02-27 03:55:00,38.8,10.0,30.30,NNW,347,0.0,4.0,30,0.00,,,0.00,weatherlink.com 1.10,2013-02-27 11:55:00,
2013-02-27 04:11:00,38.2,9.0,30.30,NNW,347,0.0,4.0,30,0.00,,,0.00,weatherlink.com 1.10,2013-02-27 12:11:00,
2013-02-27 04:27:00,38.2,9.0,30.30,NNW,347,0.0,4.0,30,0.00,,,0.00,weatherlink.com 1.10,2013-02-27 12:27:00,
2013-02-27 04:43:00,38.2,9.0,30.31,NNW,347,4.0,5.0,30,0.00,,,0.00,weatherlink.com 1.10,2013-02-27 12:43:00,
2013-02-27 04:59:00,38.6,10.0,30.31,NNW,348,0.0,5.0,30,0.00,,,0.00,weatherlink.com 1.10,2013-02-27 12:59:00,
2013-02-27 05:14:00,38.6,10.0,30.32,NNW,348,0.0,5.0,30,0.00,,,0.00,weatherlink.com 1.10,2013-02-27 13:14:00,
2013-02-27 05:30:00,37.9,10.0,30.32,NNW,348,0.0,0.0,31,0.00,,,0.00,weatherlink.com 1.10,2013-02-27 13:30:00,
2013-02-27 05:46:00,37.3,10.0,30.33,NNW,348,1.0,4.0,32,0.00,,,0.00,weatherlink.com 1.10,2013-02-27 13:46:00,
2013-02-27 06:02:00,36.2,10.0,30.34,NNW,348,0.0,1.0,34,0.00,,,0.00,weatherlink.com 1.10,2013-02-27 14:02:00,
2013-02-27 06:18:00,36.2,10.0,30.34,NNW,348,0.0,2.0,34,0.00,,,0.00,weatherlink.com 1.10,2013-02-27 14:18:00,
2013-02-27 06:33:00,36.2,10.0,30.35,NNW,348,0.0,2.0,34,0.00,,,0.00,weatherlink.com 1.10,2013-02-27 14:33:00,
2013-02-27 06:49:00,36.3,11.0,30.35,NNW,348,0.0,1.0,35,0.00,,,0.00,weatherlink.com 1.10,2013-02-27 14:49:00,
2013-02-27 07:05:00,38.3,10.0,30.36,NNW,348,0.0,2.0,31,0.00,,,0.00,weatherlink.com 1.10,2013-02-27 15:05:00,
2013-02-27 07:21:00,40.3,10.0,30.37,NNW,348,0.0,0.0,28,0.00,,,0.00,weatherlink.com 1.10,2013-02-27 15:21:00,
2013-02-27 07:37:00,42.3,10.0,30.38,NNW,348,0.0,1.0,26,0.00,,,0.00,weatherlink.com 1.10,2013-02-27 15:37:00,
2013-02-27 07:53:00,42.5,11.0,30.38,NNW,348,0.0,2.0,27,0.00,,,0.00,weatherlink.com 1.10,2013-02-27 15:53:00,
2013-02-27 08:08:00,43.2,11.0,30.39,NNW,348,0.0,4.0,26,0.00,,,0.00,weatherlink.com 1.10,2013-02-27 16:08:00,
2013-02-27 08:24:00,43.3,12.0,30.40,NNW,348,2.0,4.0,27,0.00,,,0.00,weatherlink.com 1.10,2013-02-27 16:24:00,
2013-02-27 08:40:00,43.9,12.0,30.40,NNW,348,0.0,5.0,27,0.00,,,0.00,weatherlink.com 1.10,2013-02-27 16:40:00,
2013-02-27 08:56:00,45.1,12.0,30.40,North,349,1.0,5.0,26,0.00,,,0.00,weatherlink.com 1.10,2013-02-27 16:56:00,
2013-02-27 09:11:00,45.4,11.0,30.40,North,349,4.0,6.0,24,0.00,,,0.00,weatherlink.com 1.10,2013-02-27 17:11:00,
2013-02-27 09:27:00,46.5,11.0,30.40,North,349,1.0,6.0,23,0.00,,,0.00,weatherlink.com 1.10,2013-02-27 17:27:00,
2013-02-27 09:43:00,47.4,9.0,30.40,NNW,331,0.0,9.0,21,0.00,,,0.00,weatherlink.com 1.10,2013-02-27 17:43:00,
2013-02-27 09:59:00,47.7,10.0,30.40,NW,325,6.0,9.0,21,0.00,,,0.00,weatherlink.com 1.10,2013-02-27 17:59:00,
2013-02-27 10:15:00,49.1,10.0,30.39,NNW,330,1.0,6.0,20,0.00,,,0.00,weatherlink.com 1.10,2013-02-27 18:15:00,
2013-02-27 10:30:00,50.1,9.0,30.39,North,349,2.0,7.0,19,0.00,,,0.00,weatherlink.com 1.10,2013-02-27 18:30:00,
2013-02-27 10:46:00,51.0,8.0,30.38,NNW,348,4.0,9.0,17,0.00,,,0.00,weatherlink.com 1.10,2013-02-27 18:46:00,
2013-02-27 11:02:00,51.3,7.0,30.37,NNW,337,5.0,8.0,16,0.00,,,0.00,weatherlink.com 1.10,2013-02-27 19:02:00,
2013-02-27 11:18:00,52.6,9.0,30.37,NW,321,2.0,10.0,17,0.00,,,0.00,weatherlink.com 1.10,2013-02-27 19:18:00,
2013-02-27 11:34:00,52.6,8.0,30.37,WNW,300,1.0,8.0,16,0.00,,,0.00,weatherlink.com 1.10,2013-02-27 19:34:00,
2013-02-27 11:50:00,53.3,7.0,30.36,NNW,327,4.0,9.0,15,0.00,,,0.00,weatherlink.com 1.10,2013-02-27 19:50:00,
2013-02-27 12:05:00,54.8,8.0,30.35,NW,314,3.0,11.0,15,0.00,,,0.00,weatherlink.com 1.10,2013-02-27 20:05:00,
2013-02-27 12:21:00,54.8,6.0,30.35,WNW,303,4.0,10.0,14,0.00,,,0.00,weatherlink.com 1.10,2013-02-27 20:21:00,
2013-02-27 12:37:00,53.8,6.0,30.34,WNW,297,1.0,8.0,14,0.00,,,0.00,weatherlink.com 1.10,2013-02-27 20:37:00,
2013-02-27 12:53:00,55.1,3.0,30.34,West,264,1.0,8.0,12,0.00,,,0.00,weatherlink.com 1.10,2013-02-27 20:53:00,
2013-02-27 13:08:00,55.7,4.0,30.33,West,273,1.0,7.0,12,0.00,,,0.00,weatherlink.com 1.10,2013-02-27 21:08:00,
2013-02-27 13:24:00,56.2,6.0,30.32,West,279,3.0,7.0,13,0.00,,,0.00,weatherlink.com 1.10,2013-02-27 21:24:00,
2013-02-27 13:40:00,56.6,4.0,30.32,WNW,282,0.0,7.0,12,0.00,,,0.00,weatherlink.com 1.10,2013-02-27 21:40:00,
2013-02-27 13:56:00,57.0,3.0,30.31,WNW,283,5.0,6.0,11,0.00,,,0.00,weatherlink.com 1.10,2013-02-27 21:56:00,
2013-02-27 14:12:00,56.9,3.0,30.30,WNW,292,0.0,8.0,11,0.00,,,0.00,weatherlink.com 1.10,2013-02-27 22:12:00,
2013-02-27 14:28:00,57.2,3.0,30.30,West,271,3.0,10.0,11,0.00,,,0.00,weatherlink.com 1.10,2013-02-27 22:28:00,
2013-02-27 14:44:00,57.8,4.0,30.30,West,273,1.0,5.0,11,0.00,,,0.00,weatherlink.com 1.10,2013-02-27 22:44:00,
2013-02-27 14:59:00,58.1,2.0,30.29,West,271,0.0,8.0,10,0.00,,,0.00,weatherlink.com 1.10,2013-02-27 22:59:00,
2013-02-27 15:15:00,58.0,-1.0,30.29,WNW,284,0.0,9.0,9,0.00,,,0.00,weatherlink.com 1.10,2013-02-27 23:15:00,
2013-02-27 15:31:00,57.6,-1.0,30.29,WNW,284,2.0,9.0,9,0.00,,,0.00,weatherlink.com 1.10,2013-02-27 23:31:00,
2013-02-27 15:47:00,58.0,2.0,30.29,West,275,0.0,8.0,10,0.00,,,0.00,weatherlink.com 1.10,2013-02-27 23:47:00,
2013-02-27 16:02:00,56.5,0.0,30.29,West,278,2.0,8.0,10,0.00,,,0.00,weatherlink.com 1.10,2013-02-28 00:02:00,
2013-02-27 16:18:00,56.0,2.0,30.29,West,278,1.0,7.0,11,0.00,,,0.00,weatherlink.com 1.10,2013-02-28 00:18:00,
2013-02-27 16:34:00,55.4,0.0,30.29,West,278,0.0,6.0,10,0.00,,,0.00,weatherlink.com 1.10,2013-02-28 00:34:00,
2013-02-27 16:49:00,55.0,-1.0,30.29,West,278,0.0,5.0,10,0.00,,,0.00,weatherlink.com 1.10,2013-02-28 00:49:00,
2013-02-27 17:05:00,54.4,1.0,30.29,West,278,0.0,6.0,11,0.00,,,0.00,weatherlink.com 1.10,2013-02-28 01:05:00,
2013-02-27 17:21:00,53.6,0.0,30.30,West,278,0.0,5.0,11,0.00,,,0.00,weatherlink.com 1.10,2013-02-28 01:21:00,
2013-02-27 17:37:00,52.9,2.0,30.30,West,278,0.0,4.0,12,0.00,,,0.00,weatherlink.com 1.10,2013-02-28 01:37:00,
2013-02-27 17:53:00,52.3,1.0,30.30,West,278,0.0,4.0,12,0.00,,,0.00,weatherlink.com 1.10,2013-02-28 01:53:00,
2013-02-27 18:08:00,51.4,0.0,30.30,West,278,0.0,0.0,12,0.00,,,0.00,weatherlink.com 1.10,2013-02-28 02:08:00,
2013-02-27 18:24:00,49.8,1.0,30.31,West,278,0.0,4.0,13,0.00,,,0.00,weatherlink.com 1.10,2013-02-28 02:24:00,
2013-02-27 18:40:00,49.4,2.0,30.32,West,278,0.0,0.0,14,0.00,,,0.00,weatherlink.com 1.10,2013-02-28 02:40:00,
2013-02-27 18:56:00,48.2,1.0,30.32,West,278,0.0,0.0,14,0.00,,,0.00,weatherlink.com 1.10,2013-02-28 02:56:00,
2013-02-27 19:28:00,47.9,2.0,30.32,West,278,0.0,0.0,15,0.00,,,0.00,weatherlink.com 1.10,2013-02-28 03:28:00,
2013-02-27 19:43:00,45.7,3.0,30.32,West,278,0.0,0.0,17,0.00,,,0.00,weatherlink.com 1.10,2013-02-28 03:43:00,
2013-02-27 19:59:00,44.5,2.0,30.32,West,278,0.0,0.0,17,0.00,,,0.00,weatherlink.com 1.10,2013-02-28 03:59:00,
2013-02-27 20:31:00,49.5,2.0,30.32,West,278,2.0,5.0,14,0.00,,,0.00,weatherlink.com 1.10,2013-02-28 04:31:00,
2013-02-27 20:46:00,49.5,1.0,30.33,West,278,2.0,5.0,13,0.00,,,0.00,weatherlink.com 1.10,2013-02-28 04:46:00,
2013-02-27 21:02:00,49.4,1.0,30.34,West,278,2.0,5.0,13,0.00,,,0.00,weatherlink.com 1.10,2013-02-28 05:02:00,
2013-02-27 21:18:00,49.2,0.0,30.34,West,278,5.0,7.0,13,0.00,,,0.00,weatherlink.com 1.10,2013-02-28 05:18:00,
2013-02-27 21:34:00,49.1,0.0,30.34,West,278,5.0,6.0,13,0.00,,,0.00,weatherlink.com 1.10,2013-02-28 05:34:00,
2013-02-27 21:49:00,48.6,0.0,30.35,West,278,2.0,6.0,13,0.00,,,0.00,weatherlink.com 1.10,2013-02-28 05:49:00,
2013-02-27 22:05:00,49.1,0.0,30.35,West,277,5.0,7.0,13,0.00,,,0.00,weatherlink.com 1.10,2013-02-28 06:05:00,
2013-02-27 22:21:00,48.9,0.0,30.35,West,277,0.0,6.0,13,0.00,,,0.00,weatherlink.com 1.10,2013-02-28 06:21:00,
2013-02-27 22:36:00,44.8,1.0,30.35,West,277,0.0,2.0,16,0.00,,,0.00,weatherlink.com 1.10,2013-02-28 06:36:00,
2013-02-27 22:52:00,45.2,2.0,30.36,West,277,4.0,4.0,16,0.00,,,0.00,weatherlink.com 1.10,2013-02-28 06:52:00,
2013-02-27 23:08:00,43.6,2.0,30.36,West,277,0.0,4.0,17,0.00,,,0.00,weatherlink.com 1.10,2013-02-28 07:08:00,
2013-02-27 23:24:00,43.5,1.0,30.36,West,277,3.0,6.0,17,0.00,,,0.00,weatherlink.com 1.10,2013-02-28 07:24:00,
2013-02-27 23:39:00,47.1,2.0,30.36,West,277,2.0,4.0,15,0.00,,,0.00,weatherlink.com 1.10,2013-02-28 07:39:00,
2013-02-27 23:55:00,46.7,1.0,30.36,West,277,4.0,4.0,15,0.00,,,0.00,weatherlink.com 1.10,2013-02-28 07:55:00,